Regional Weather Roundup
Issued by NWS

Home | Current Version | Previous Version | Text Only | Print | Product List | Glossary On
Versions: 1 2 3 4 5 6 7 8 9 10 11 12 13 14 15 16 17 18 19 20 21 22 23 24 25 26 27 28 29 30 31 32 33 34 35 36 37 38 39 40 41 42 43 44 45 46 47 48 49 50
000
ASUS43 KTOP 310208
RWRKS

WEATHER ROUNDUP FOR KANSAS
NATIONAL WEATHER SERVICE GOODLAND KS
900 PM CDT SUN AUG 30 2015

NOTE:  "FAIR" INDICATES FEW OR NO CLOUDS BELOW 12,000 FEET WITH NO
SIGNIFICANT WEATHER AND/OR OBSTRUCTIONS TO VISIBILITY.

KSZ001>006-013>018-027>032-041>047-310300-
NORTHWEST KANSAS

CITY           SKY/WX    TMP DP  RH WIND       PRES   REMARKS
GOODLAND       CLEAR     75  39  27 S13       29.96R
HAYS           CLEAR     73  54  49 SE10      29.95R
HILL CITY      CLEAR     75  49  39 SE6       29.94R
RUSSELL        CLEAR     72  61  68 SE8       29.95R
$$

KSZ061>065-074>080-084>089-310300-
SOUTHWEST KANSAS

CITY           SKY/WX    TMP DP  RH WIND       PRES   REMARKS
DODGE CITY     CLEAR     72  53  51 SE9       29.97R
ELKHART          N/A     70  54  57 SE9         N/A
GARDEN CITY    CLEAR     69  51  52 SE10      29.96R
GREAT BEND     CLEAR     73  63  68 SE8       29.96R
LIBERAL        CLEAR     77  48  36 E9        29.98R
PRATT          CLEAR     77  59  53 CALM      29.98R
$$

KSZ066>073-081>083-090>101-310300-
SOUTHEAST KANSAS

CITY           SKY/WX    TMP DP  RH WIND       PRES   REMARKS
CHANUTE        PTCLDY    76  70  82 NE5       29.96R
COFFEYVILLE    PTCLDY    78  75  90 CALM      29.95R
HUTCHINSON     CLEAR     70  63  78 E5        29.96R
MEDICINE LODGE   N/A     78  63  59 S5        29.94R
NEWTON         CLEAR     73  61  64 SE7       29.98S
PARSONS        LGT RAIN  76  75  97 CALM      29.96R
WICHITA INTL   CLEAR     76  66  71 SE6       29.95R
WICHITA JABRA  CLEAR     74  66  76 SE5       29.95R
WICHITA MCCONL CLEAR     76  66  71 E6        29.95R
WINFIELD       CLEAR     76  69  79 E7        29.96R
$$

KSZ007>012-019>026-033>040-048>060-102>105-310300-
NORTHEAST KANSAS

CITY           SKY/WX    TMP DP  RH WIND       PRES   REMARKS
CONCORDIA      CLEAR     68  64  87 CALM      29.97R
EMPORIA        CLEAR     73  67  81 SE5       29.96R
LAWRENCE       CLEAR     70  68  93 E3        29.96R
MANHATTAN      MOCLDY    71  68  90 CALM      29.95R
MARYSVILLE     CLEAR    N/A N/A N/A CALM      29.97R
OLATHE IND     CLEAR     76  70  82 SE7       29.98R
OLATHE EXE     CLEAR     76  70  82 SE5       29.97R
SALINA         CLEAR     77  65  66 E5        29.95R
TOPEKA BILLARD CLEAR     75  71  87 CALM      29.96R
TOPEKA FORBES  CLEAR     73  70  90 CALM      29.96R
$$


USA.gov is the U.S. government's official web portal to all federal, state and local government web resources and services.